Regional Weather Roundup
Issued by NWS

Home | Current Version | Previous Version | Text Only | Print | Product List | Glossary On
Versions: 1 2 3 4 5 6 7 8 9 10 11 12 13 14 15 16 17 18 19 20 21 22 23 24 25 26 27 28 29 30 31 32 33 34 35 36 37 38 39 40 41 42 43 44 45 46 47 48 49 50
000
ASHW40 PHFO 250943
RWRHI

WEATHER ROUNDUP FOR HAWAII
NATIONAL WEATHER SERVICE HONOLULU HI
1100 PM HST SUN JUL 24 2016

THIS IS AN AUTOMATED REPORT THAT HAS NOT BEEN QUALITY CONTROLLED.

NOTE..."FAIR" INDICATES FEW OR NO CLOUDS BELOW 12,000 FEET WITH NO
SIGNIFICANT WEATHER AND/OR OBSTRUCTIONS TO VISIBILITY.

* - THESE SITES REPORT LIMITED FIELDS

HIZ001>004-251000-
KAUAI-NIIHAU-

CITY           SKY/WX    TMP DP  RH WIND       PRES   REMARKS
LIHUE APT      MOCLDY    78  74  87 SW10      29.90R
PORT ALLEN*      N/A     79 N/A N/A SW10        N/A
POIPU*           N/A     77 N/A N/A W5G10       N/A
PRINCEVILLE*     N/A     75 N/A N/A S3          N/A
KOKOLE POINT*  NOT AVBL
MOLOAA DAIRY*    N/A     75  73  94 SE5G10      N/A
WAIMEA HTS*      N/A     77  73  88 E3          N/A
PUU OPAE*        N/A     72  72 100 E8G14       N/A
PUU LUA*       NOT AVBL
MAKAHA RIDGE*    N/A     72  72 100 S5          N/A
$$

HIZ005>011-251000-
OAHU-

CITY           SKY/WX    TMP DP  RH WIND       PRES   REMARKS
HONOLULU       TSTM      75  73  94 SE12G24   29.93S
KALAELOA       LGT RAIN  81  75  83 SE18      29.95S
KANEOHE MCB    TSTM      79  77  94 S10G22    29.91R
WHEELER FIELD  LGT RAIN  75  75 100 S10G20    29.94F
BELLOWS*         N/A    N/A N/A N/A SE8         N/A
KAHUKU*          N/A    N/A N/A N/A VRB5G14     N/A
WHEELER*         N/A    N/A N/A N/A S17G24      N/A
WAIANAE HARBOR   N/A    N/A N/A N/A SE13G22     N/A
DILLINGHAM*      N/A     77  73  88 MISG        N/A
KAHUKU TRN*      N/A     73  73 100 NW2G12      N/A
KAWAILOA*        N/A     73  70  88 S6G22       N/A
KII*             N/A     73  72  94 SE10G20     N/A
MAKUA RANGE*     N/A     81  75  83 NE7G26      N/A
OAHU FOREST NW   N/A     72  72 100 S20G41      N/A
SCHOFIELD BRK*   N/A     75  73  94 MISG        N/A
SCHOFIELD S*   NOT AVBL
WAIANAE VLY*     N/A     75  73  94 SE7G16      N/A
KUAOKALA*        N/A     75  75 100 SE18G33     N/A
HONOULIUULI*   NOT AVBL
MOKUOLOE IS*   NOT AVBL
PALEHUA*         N/A     72  72 100 SE9G22      N/A
WAIAWA PHB*    NOT AVBL
$$

HIZ012>013-251000-
MOLOKAI-

CITY           SKY/WX    TMP DP  RH WIND       PRES   REMARKS
MOLOKAI AIRPT    N/A     79  73  82 SE10      29.98S
KALAUPAPA      NOT AVBL
MAKAPULAPAI*     N/A     79  73  83 E12G22      N/A
MOLOKAI 1*       N/A     68  68 100 SE3G13      N/A
PUU ALII*        N/A     63  63  99 E3G10       N/A
$$

HIZ016-251000-
KAHOOLAWE-

CITY           SKY/WX    TMP DP  RH WIND       PRES   REMARKS
KAHOOLAWE*       N/A     73 N/A N/A SE1         N/A
HAKIOAWA*        N/A     75  75  99 MISG      30.41S
HONOKANAIA*      N/A     80  75  84 NE15G26   29.91R
KANELOA*         N/A     75  73  94 E12G24    30.04R
KEALIALALO*    NOT AVBL
LUA MAKIKA*    NOT AVBL
$$

HIZ014>015-251000-
LANAI-

CITY           SKY/WX    TMP DP  RH WIND       PRES   REMARKS
LANAI CITY     CLOUDY    73  73 100 SE12      30.04R
LANAI 1*         N/A     75  72  88 SE12G20     N/A
$$

HIZ017>028-251000-
MAUI-

CITY           SKY/WX    TMP DP  RH WIND       PRES   REMARKS
KAHULUI        CLOUDY    77  74  90 S3        29.97R
KAPALUA-W MAUI NOT AVBL
HANA AIRPORT     N/A     77  73  88 SE2       30.02S
HANA*            N/A     79 N/A N/A SE8G16      N/A
HALEAKALA SUMM   N/A     46  46 100 S17G32      N/A
MAALAEA BAY*     N/A     77 N/A N/A N5          N/A
HALEAKALA*     NOT AVBL
KAUPO GAP*       N/A     72  72 100 NW7         N/A
KULA 1*          N/A     61  47  59 SE9G18      N/A
$$

HIZ023>026-251000-
BIG ISLAND OF HAWAII COAST AND LOWER SLOPES-

CITY           SKY/WX    TMP DP  RH WIND       PRES   REMARKS
KAILUA KONA    CLOUDY    82  76  81 N17       29.95R
HILO           CLOUDY    78  74  87 S5        30.00S
HONOKAA*         N/A     73 N/A N/A VRB1        N/A
KAWAIHAE MWT*    N/A     82 N/A N/A S1          N/A
KAWAIHAE*        N/A     82 N/A N/A NE3       29.98R
SOUTH POINT*     N/A     73 N/A N/A N14G22      N/A
UPOLU AIRPORT*   N/A    N/A N/A N/A E9          N/A
KAMUELA*       CLOUDY    70  66  88 CALM      30.11S
HAKALAU*         N/A     57  55  91 S7G14       N/A
KALOKO-HONOKO*   N/A     81  72  74 N13G18    29.93S
PALI 2*          N/A     66  66 100 S5          N/A
KEALAKOMO*       N/A     79  73  83 NE6G12      N/A
KAUPULEHU*       N/A     73  70  88 E6          N/A
KAPAPALA*        N/A     71  70  96 NE3         N/A
LOWER KAHUKU*    N/A     66  64  94 N3G9        N/A
PUHE CS*         N/A     81  70  69 CALM        N/A
PUHO CS*       NOT AVBL
PTA KEAMUKU*     N/A     66  64  94 CALM        N/A
WAIKOLOA*        N/A     75  70  83 E2          N/A
$$

HIZ027>028-251000-
BIG ISLAND OF HAWAII INTERIOR AND SUMMMITS-

CITY           SKY/WX    TMP DP  RH WIND       PRES   REMARKS
BRADSHAW FIELD CLOUDY    59  59 100 N1        30.36S FOG
MK VISITOR CEN   N/A     54  27  35 NE7         N/A
MAUNA KEA*       N/A     34  28  80 W15         N/A  WCI  24
MAUNA LOA*       N/A    N/A N/A N/A MISG        N/A
MAUNA LOA 1*   NOT AVBL
PTA KIPUKA*      N/A     73  73 100 NE3         N/A
PTA RANGE 17*    N/A     70  70 100 SW3         N/A
PTA WEST*        N/A     64  63  94 N3          N/A
NENE CABIN*      N/A     57  55  94 NE3         N/A
AHUMOA*          N/A     57  57 100 NE5         N/A
PTA PORTABLE*  NOT AVBL
PUU MALI*        N/A     57  57 100 SW6G12      N/A
$$

HIC003-251000-
NORTHWEST ISLANDS-

CITY           SKY/WX    TMP DP  RH WIND       PRES   REMARKS
MIDWAY ISLAND  PTCLDY    77  70  78 E17       30.19R
MIDWAY NOS*      N/A     79 N/A N/A MISG      30.17S
FRENCH FRIGATE NOT AVBL
$$

PHZ110>124-180-251000-
BUOY REPORTS

STATION/POSITION TIME  TEMP    WIND        PRES    WAVE   SWELL
                       AIR SEA DIR/SP/G            HT/PER HT/DIR
                 (UTC) (F)     (DEG/KT/KT) (MB)    (FT/S) (FT/D)
BUOY 51001       0900   80 82   70/ 16/ 19 1017.3R
BUOY 51101       0850   77 78   40/ 16/ 19 1015.9R   8/ 9   5/ 80
BUOY 51100       NOT AVBL
BUOY 51002       0850   81 82   80/ 10/ 12 1014.7R   7/ 8   7
BUOY 51003       0850   80 82  310/  2/  4 1013.7R   5/ 9   5/ 60
BUOY 51004       0850   79 81   90/ 16/ 17 1014.5F   6/ 7   5/100
BARBERS PT BUOY  NOT AVBL
WAIMEA BAY BUOY  0904      79                N/A     5/ 9   2/ 30
KAILUA BAY BUOY  0911      79                N/A     7/ 8   2/ 80
LANAI BUOY       0915      81                N/A     4/13   2/200
BARBERS PT 2     NOT AVBL
PAUWELA MAUI     0909      79                N/A     8/12   3/ 80
HILO             0912      80                N/A     5/12   2/ 80
KANEOHE BAY BUOY 0906      79                N/A     6/ 8   2/ 60
HANALEI KAUAI    NOT AVBL
KAHULUI HARBOR   0900   79 79  300/  3/  4 1014.8R
HONOLULU HARBOR  0900   80 80  150/  4/  9 1014.4R
KILO NALU        NOT AVBL
HILO HARBOR      0900   77 79  180/  3/  7 1015.6R
MOKUOLOE         0800   76 81  290/  4/ 10 1013.5R
NAWILIWILI       0900   78 80  250/  8/ 10 1012.1R
WHOTS BUOY       NOT AVBL
BUOY 51028       NOT AVBL
$$

......................KEY........................................
  SKY/WX - SKY CONDITIONS/PRESENT WEATHER
  TMP    - TEMPERATURE IN FAHRENHEIT
  DWPT   - DEWPOINT IN FAHRENHEIT
  RH     - RELATIVE HUMIDITY IN PERCENT
  WIND   - DIRECTION AND SPEED /MPH FOR ISLANDS...KTS FOR BUOYS/
  PRES   - MEAN SEA LEVEL PRESSURE IN INCHES OF HG
  VSB    - VISIBILITY IN MILES
  HX     - HEAT INDEX
  WCI    - WIND CHILL INDEX
  VRB    - VARIABLE WIND DIRECTION
  N/A    - NOT AVAILABLE



USA.gov is the U.S. government's official web portal to all federal, state and local government web resources and services.